Hourly Data Report for October 09, 2016

All times are specified in Local Standard Time (LST). Add 1 hour to adjust for Daylight Saving Time where and when it is observed.

ST LEONARD CS
NEW BRUNSWICK

47°09'28.050" N
67°49'55.014" W
245.00 m
810I001
71019
WIY

Download Data

Hourly Data (October 2016)
Hourly Data Report for October 9, 2016
Temp Definition
°C
Dew Point Temp Definition
°C
Rel Hum Definition
%
Wind Dir Definition
10's deg

Wind Spd Definition
km/h
Visibility Definition
km
Stn Press Definition
kPa
Hmdx Definition


Wind Chill Definition


Weather Definition


TIME
00:00 12.6 7.6 71 19 15   98.28     LegendNANA
01:00 11.0 8.5 85 16 13   98.35     LegendNANA
02:00 10.2 9.3 94 19 17   98.39     LegendNANA
03:00 10.0 9.4 96 20 16   98.37     LegendNANA
04:00 9.6 8.6 94 29 10   98.49     LegendNANA
05:00 9.0 8.0 94 31 7   98.57     LegendNANA
06:00 7.1 6.2 94 30 11   98.65     LegendNANA
07:00 6.7 5.9 95 31 12   98.68     LegendNANA
08:00 7.9 6.7 93 30 9   98.78     LegendNANA
09:00 9.3 6.5 83 31 14   98.81     LegendNANA
10:00 9.9 5.0 71 31 20   98.84     LegendNANA
11:00 10.2 5.0 70 32 16   98.89     LegendNANA
12:00 10.3 4.5 67 33 14   98.85     LegendNANA
13:00 11.4 4.6 63 32 13   98.83     LegendNANA
14:00 11.1 2.2 54 30 17   98.86     LegendNANA
15:00 11.0 2.4 55 30 18   98.88     LegendNANA
16:00 10.0 2.6 60 32 18   98.92     LegendNANA
17:00 9.1 2.0 61 32 14   98.95     LegendNANA
18:00 8.0 2.0 66 33 16   98.98     LegendNANA
19:00 7.0 1.9 70 33 12   99.03     LegendNANA
20:00 6.2 2.0 75 33 8   99.05     LegendNANA
21:00 5.6 2.1 78 33 3   99.12     LegendNANA
22:00 4.8 2.2 83 34 4   99.14     LegendNANA
23:00 4.5 2.2 85 33 5   99.03     LegendNANA

Notes on Data Quality.

Legend

  • E = Estimated
  • M = Missing
  • NA = Not Available
  • ‡ = Partner data that is not subject to review by the National Climate Archives
Date modified: